[[{"header":{"parameterUnit":"m.s-1","parameterCategory":1,"la1":30.2991,"la2":30.254,"lo1":-89.0895,"lo2":-89.0444,"dy":0.0017,"dx":0.0017,"nx":28,"ny":28,"refTime":"2024-04-13T21:00:00:Z","depth":0,"parameterNumber":2,"parameterNumberName":"U-component_of_WINDS"},"data":[0,0,0,0,0,0,0,0,0,0,0,0,0,0,0,0,0,0,0,0,0,0,0,0,0,0,0,0,0,0,0,0,0,0,0,0,0,0,0,0,0,0,0,0,0,0,0,0,0,0,0,0,0,0,0,0,0,0,-1.2842,-1.2842,0,-1.2867,-1.2867,-1.2868,-1.2832,-1.2831,-1.2829,-1.2828,-1.2856,-1.2858,-1.286,0,0,0,0,0,0,0,0,0,0,0,0,0,-1.2764,-1.2766,-1.2842,-1.2842,-1.2842,-1.2867,-1.2867,-1.2868,-1.2832,-1.2831,-1.2829,-1.2828,-1.2855,-1.2858,-1.286,0,0,0,0,0,0,0,0,0,0,0,0,0,-1.2795,-1.2766,-1.2842,-1.2827,-1.2826,-1.2867,-1.2867,-1.2868,-1.2833,-1.2831,-1.2829,-1.2827,-1.2855,-1.2857,-1.286,-1.2916,0,0,-1.2869,-1.287,0,0,0,0,0,0,0,0,-1.2793,-1.2797,-1.2829,-1.2828,-1.2827,-1.2844,-1.285,-1.2884,-1.2833,-1.283,-1.2828,-1.2826,-1.2854,-1.2857,-1.2866,-1.2918,-1.2919,-1.2869,-1.2871,-1.2872,-1.2873,0,0,0,0,0,0,0,-1.2791,-1.2796,-1.2852,-1.283,-1.2829,-1.2821,-1.2823,-1.2856,-1.2852,-1.283,-1.2828,-1.2831,-1.2853,-1.2863,-1.2866,-1.2919,-1.2869,-1.2872,-1.2874,-1.2875,-1.302,-1.3022,0,0,0,0,0,0,-1.279,-1.2795,-1.2851,-1.2852,-1.2805,-1.2823,-1.2826,-1.2841,-1.2852,-1.2852,-1.2833,-1.2829,-1.2859,-1.2863,-1.2867,-1.2934,-1.2872,-1.2875,-1.2877,-1.3018,-1.302,-1.3022,0,0,0,0,0,0,-1.2789,-1.2795,-1.285,-1.2823,-1.2829,-1.2827,-1.2844,-1.2842,-1.2852,-1.2854,-1.2853,-1.2844,-1.2858,-1.2863,-1.2904,-1.2934,-1.2876,-1.2879,-1.3015,-1.3018,-1.3021,-1.3068,0,0,0,0,0,0,-1.2786,-1.2795,-1.2816,-1.2824,-1.2831,-1.2887,-1.2846,-1.2844,-1.2857,-1.2853,-1.2864,-1.2864,-1.2856,-1.29,-1.2907,-1.2937,-1.2881,-1.3012,-1.3016,-1.302,-1.3064,-1.3072,-1.308,0,0,0,0,0,-1.2784,-1.2828,-1.2817,-1.2824,-1.2857,-1.2888,-1.2892,-1.2883,-1.286,-1.2881,-1.2882,-1.2863,-1.293,-1.2905,-1.2912,-1.2944,-1.301,-1.3015,-1.302,-1.306,-1.3071,-1.308,0,0,0,0,0,0,-1.2824,-1.2829,-1.2817,-1.2865,-1.2876,-1.2882,-1.2908,-1.2894,-1.2913,-1.2908,-1.2896,-1.2898,-1.2943,-1.2947,-1.2919,-1.2999,-1.2966,-1.2973,-1.2995,-1.3004,-1.3012,-1.301,-1.2883,0,0,0,0,0,-1.2839,-1.2863,-1.2866,-1.2908,-1.2915,-1.2911,-1.2924,-1.2916,-1.2928,-1.2933,-1.2937,-1.2949,-1.2973,-1.2989,-1.3011,-1.3064,-1.3067,-1.309,-1.3098,-1.3104,-1.311,-1.314,-1.315,-1.3038,-1.3038,-1.3038,0,0,-1.2869,-1.2874,-1.2891,-1.2917,-1.2925,-1.2951,-1.2915,-1.2945,-1.2965,-1.2937,-1.2977,-1.298,-1.2994,-1.3042,-1.3063,-1.3047,-1.3142,-1.311,-1.3116,-1.3118,-1.3146,-1.3156,-1.3166,-1.3041,-1.3041,-1.304,0,0,-1.2937,-1.2944,-1.298,-1.2989,-1.3001,-1.2999,-1.3007,-1.3016,-1.3017,-1.3057,-1.3037,-1.3061,-1.3102,-1.3112,-1.3123,-1.3197,-1.3181,-1.3204,-1.3246,-1.3275,-1.3284,-1.3292,-1.3319,-1.3328,-1.321,-1.321,-1.321,0,-1.2973,-1.3012,-1.3,-1.3032,-1.3044,-1.302,-1.3057,-1.3067,-1.3086,-1.3096,-1.3077,-1.3129,-1.3136,-1.3186,-1.3205,-1.3214,-1.3224,-1.3203,-1.3284,-1.3291,-1.3298,-1.3324,-1.3334,-1.3213,-1.3213,-1.3213,-1.3212,0,-1.3056,-1.3083,-1.3111,-1.313,-1.3146,-1.318,-1.3174,-1.3192,-1.3182,-1.3182,-1.3223,-1.3231,-1.3254,-1.3266,-1.3257,-1.3315,-1.3305,-1.3285,-1.3252,-1.3312,-1.3336,-1.3346,-1.3217,-1.3216,-1.3215,-1.3215,0,0,-1.315,-1.3163,-1.3173,-1.3182,-1.3195,-1.3216,-1.325,-1.3272,-1.3288,-1.3302,-1.3331,-1.3366,-1.3348,-1.3361,-1.3353,-1.3378,-1.3437,-1.3355,-1.3356,-1.3371,-1.3503,-1.3518,-1.353,-1.3427,-1.3428,-1.343,-1.3502,0,-1.3219,-1.3276,-1.3267,-1.3322,-1.3348,-1.3326,-1.3356,-1.3367,-1.3368,-1.3391,-1.3391,-1.3417,-1.3391,-1.3399,-1.3423,-1.3425,-1.3464,-1.342,-1.3453,-1.3455,-1.3451,-1.3542,-1.3558,-1.3626,-1.3512,-1.3513,-1.3514,0,-1.3306,-1.3324,-1.3382,-1.3392,-1.3402,-1.3429,-1.3449,-1.3471,-1.3484,-1.3483,-1.3497,-1.3485,-1.3519,-1.3486,-1.3533,-1.3504,-1.3517,-1.352,-1.3523,-1.3526,-1.3488,-1.3548,-1.3647,-1.3658,-1.3529,-1.3528,-1.3527,0,-1.337,-1.3408,-1.3448,-1.3456,-1.3468,-1.3487,-1.3494,-1.3505,-1.3519,-1.3538,-1.3547,-1.3569,-1.3582,-1.36,-1.3594,-1.357,-1.3644,-1.3609,-1.3644,-1.3644,-1.366,-1.3659,-1.3764,-1.3669,-1.3669,-1.3669,-1.3668,0,-1.3447,-1.3484,-1.3477,-1.3501,-1.3542,-1.3532,-1.3573,-1.3576,-1.3587,-1.3612,-1.3595,-1.3619,-1.3611,-1.3635,-1.3631,-1.3672,-1.3677,-1.3678,-1.3676,-1.3679,-1.3679,-1.3688,-1.3683,-1.3671,-1.3671,-1.367,-1.367,0,-1.3525,-1.3521,-1.3564,-1.3572,-1.3575,-1.3605,-1.3612,-1.3635,-1.3635,-1.3668,-1.3675,-1.3675,-1.3702,-1.3699,-1.373,-1.3727,-1.3778,-1.377,-1.3773,-1.3772,-1.3807,-1.3804,-1.392,-1.3935,-1.3831,-1.3832,-1.3833,0,-1.3575,-1.3602,-1.3614,-1.3629,-1.3637,-1.3662,-1.3677,-1.3669,-1.3685,-1.3703,-1.3725,-1.3751,-1.3771,-1.3817,-1.382,-1.3844,-1.3837,-1.3876,-1.384,-1.3843,-1.3838,-1.3837,-1.384,-1.3883,-1.3885,-1.3886,-1.3886,0,-1.3664,-1.3661,-1.3683,-1.3705,-1.3723,-1.374,-1.3755,-1.3769,-1.3762,-1.3781,-1.3809,-1.3825,-1.3857,-1.3884,-1.3906,-1.3913,-1.3899,-1.3898,-1.3907,-1.391,-1.3911,-1.3912,-1.3793,-1.3895,-1.3894,-1.3893,-1.3893,-1.3893,-1.3729,-1.3753,-1.3765,-1.379,-1.3801,-1.3816,-1.3838,-1.3841,-1.3864,-1.3889,-1.3883,-1.3915,-1.3929,-1.3958,-1.3967,-1.3993,-1.3978,-1.3992,-1.3995,-1.3999,-1.4003,-1.3907,-1.3997,-1.3996,-1.3996,-1.3996,-1.3996,0,-1.3818,-1.3825,-1.3848,-1.387,-1.389,-1.3875,-1.3891,-1.3909,-1.3937,-1.3951,-1.3971,-1.4004,-1.403,-1.4035,-1.406,-1.408,-1.4074,-1.4087,-1.4085,-1.4087,-1.4014,-1.4004,-1.4091,-1.4091,-1.4091,-1.4091,-1.4091,-1.4091,-1.3866,-1.3906,-1.3905,-1.3951,-1.3957,-1.3988,-1.3999,-1.4013,-1.4023,-1.4061,-1.4082,-1.4085,-1.4096,-1.4122,-1.4145,-1.4146,-1.4156,-1.4172,-1.417,-1.4102,-1.4092,-1.4083,-1.4073,-1.4174,-1.4174,-1.4241,-1.4242,-1.4242]},{"header":{"parameterUnit":"m.s-1","parameterCategory":1,"la1":30.2991,"la2":30.254,"lo1":-89.0895,"lo2":-89.0444,"dy":0.0017,"dx":0.0017,"nx":28,"ny":28,"refTime":"2024-04-13T21:00:00:Z","depth":0,"parameterNumber":3,"parameterNumberName":"V-component_of_WINDS"},"data":[0,0,0,0,0,0,0,0,0,0,0,0,0,0,0,0,0,0,0,0,0,0,0,0,0,0,0,0,0,0,0,0,0,0,0,0,0,0,0,0,0,0,0,0,0,0,0,0,0,0,0,0,0,0,0,0,0,0,1.9584,1.9583,0,1.9552,1.9552,1.9552,1.9548,1.9549,1.9549,1.9549,1.9515,1.9514,1.9513,0,0,0,0,0,0,0,0,0,0,0,0,0,1.9638,1.9637,1.9584,1.9583,1.9583,1.9553,1.9552,1.9552,1.9548,1.9549,1.9549,1.955,1.9515,1.9514,1.9512,0,0,0,0,0,0,0,0,0,0,0,0,0,1.9612,1.9637,1.9584,1.9578,1.9577,1.9553,1.9552,1.9552,1.9548,1.9549,1.9549,1.955,1.9516,1.9514,1.9512,1.9491,0,0,1.9507,1.9506,0,0,0,0,0,0,0,0,1.9613,1.9609,1.9579,1.9578,1.9577,1.9555,1.9559,1.9531,1.9548,1.9559,1.9549,1.955,1.9528,1.9525,1.9518,1.949,1.9488,1.9506,1.9505,1.9505,1.9504,0,0,0,0,0,0,0,1.9615,1.9611,1.9571,1.9578,1.9577,1.9576,1.9573,1.9554,1.9541,1.9558,1.9558,1.9554,1.9527,1.952,1.9517,1.9488,1.9507,1.9505,1.9504,1.9503,1.944,1.944,0,0,0,0,0,0,1.9618,1.9612,1.9572,1.957,1.9597,1.9574,1.9571,1.9561,1.9541,1.9539,1.9554,1.9554,1.9523,1.9519,1.9516,1.949,1.9505,1.9503,1.9502,1.9441,1.944,1.944,0,0,0,0,0,0,1.9619,1.9615,1.9574,1.9591,1.9586,1.9573,1.9563,1.9561,1.9553,1.9538,1.9536,1.9549,1.9523,1.9518,1.9498,1.9488,1.9502,1.95,1.9442,1.9441,1.944,1.9437,0,0,0,0,0,0,1.9621,1.9615,1.9607,1.9591,1.9585,1.9556,1.9562,1.956,1.955,1.955,1.9532,1.953,1.9523,1.95,1.9496,1.9486,1.9499,1.9442,1.9441,1.944,1.9438,1.9437,1.9435,0,0,0,0,0,1.9623,1.9607,1.9607,1.9602,1.9575,1.9556,1.9552,1.9545,1.955,1.9541,1.9532,1.953,1.949,1.9498,1.9493,1.9483,1.9443,1.9442,1.944,1.9439,1.9437,1.9435,0,0,0,0,0,0,1.9622,1.9605,1.9605,1.9584,1.9571,1.9555,1.9545,1.9543,1.9529,1.953,1.9521,1.9517,1.9496,1.9487,1.9496,1.9461,1.9467,1.9465,1.9468,1.9466,1.9464,1.9466,1.9497,0,0,0,0,0,1.962,1.9606,1.9592,1.9574,1.9568,1.9558,1.9549,1.9545,1.9531,1.9526,1.9515,1.9501,1.9485,1.9475,1.946,1.9437,1.9433,1.9428,1.9426,1.9425,1.9423,1.941,1.9407,1.9435,1.9435,1.9435,0,0,1.9614,1.9603,1.9595,1.9574,1.9564,1.9549,1.9553,1.9538,1.9526,1.9523,1.9503,1.9494,1.9478,1.9457,1.9446,1.9449,1.9414,1.9423,1.9423,1.9421,1.9408,1.9406,1.9403,1.9435,1.9435,1.9435,0,0,1.9596,1.9587,1.9572,1.9562,1.9547,1.954,1.9536,1.9521,1.9515,1.9495,1.9492,1.9478,1.9452,1.944,1.9431,1.941,1.9408,1.9405,1.9397,1.9384,1.9382,1.938,1.9372,1.9369,1.9403,1.9403,1.9403,0,1.9591,1.957,1.9564,1.9548,1.9539,1.9536,1.952,1.9511,1.9491,1.9485,1.9488,1.9454,1.9443,1.9419,1.9414,1.9407,1.9402,1.9407,1.9383,1.9381,1.9379,1.9371,1.9368,1.9403,1.9403,1.9403,1.9403,0,1.9564,1.9549,1.9538,1.952,1.951,1.9494,1.9485,1.9475,1.9472,1.9465,1.9444,1.9431,1.9413,1.9407,1.9403,1.9382,1.9384,1.9385,1.939,1.9376,1.9369,1.9366,1.9402,1.9403,1.9403,1.9403,0,0,1.9544,1.9524,1.952,1.9512,1.9495,1.9483,1.9467,1.9451,1.9442,1.9429,1.9415,1.9393,1.9394,1.9384,1.9379,1.9368,1.9351,1.9371,1.937,1.9367,1.9326,1.9325,1.9322,1.935,1.935,1.9349,1.9328,0,1.9524,1.9496,1.9491,1.9466,1.9452,1.945,1.9436,1.9424,1.9417,1.9403,1.9395,1.9379,1.9382,1.9376,1.9365,1.9356,1.9343,1.9357,1.9336,1.9336,1.934,1.9318,1.9316,1.9296,1.9325,1.9324,1.9324,0,1.9497,1.9484,1.9459,1.9444,1.9438,1.9426,1.941,1.9397,1.9384,1.9379,1.9368,1.9364,1.9347,1.9354,1.9329,1.9339,1.933,1.9324,1.9323,1.9321,1.9328,1.9314,1.929,1.9287,1.9319,1.9319,1.932,0,1.9485,1.9461,1.9442,1.9436,1.9418,1.941,1.9402,1.9389,1.9379,1.9365,1.9359,1.9343,1.9334,1.9321,1.9313,1.9319,1.929,1.9296,1.9285,1.9285,1.9278,1.9278,1.9251,1.9273,1.9273,1.9273,1.9273,0,1.9463,1.9447,1.9437,1.9425,1.9408,1.9401,1.9384,1.9376,1.9364,1.9351,1.9348,1.9335,1.9326,1.9311,1.9305,1.9286,1.9282,1.9277,1.9275,1.9277,1.9277,1.927,1.9271,1.9272,1.9273,1.9273,1.9273,0,1.9446,1.9438,1.9418,1.9404,1.94,1.9387,1.9375,1.9363,1.9356,1.9339,1.9335,1.9324,1.9307,1.9298,1.9277,1.9272,1.925,1.925,1.9255,1.9254,1.9244,1.9245,1.9211,1.9206,1.9232,1.9231,1.9231,0,1.9432,1.942,1.9405,1.9396,1.9388,1.9374,1.9365,1.9358,1.9348,1.9331,1.9322,1.9305,1.9291,1.9264,1.9254,1.9237,1.9236,1.9225,1.9233,1.9235,1.9235,1.9236,1.9234,1.9224,1.9223,1.9223,1.9223,0,1.9408,1.9405,1.9392,1.9377,1.9366,1.9354,1.9342,1.9335,1.9326,1.9315,1.9298,1.9288,1.9266,1.9249,1.9232,1.9224,1.9222,1.9221,1.9217,1.9218,1.9222,1.922,1.9251,1.9221,1.9222,1.9222,1.9222,1.9222,1.9392,1.9381,1.9369,1.9354,1.9345,1.9334,1.9322,1.9314,1.93,1.9283,1.928,1.9262,1.9248,1.9225,1.9216,1.9202,1.9204,1.9199,1.9197,1.9196,1.9195,1.9225,1.9199,1.9199,1.9199,1.9199,1.9199,0,1.9368,1.936,1.9347,1.933,1.9319,1.9319,1.9306,1.9295,1.928,1.9268,1.9255,1.9235,1.9219,1.9208,1.9191,1.9182,1.918,1.9177,1.9178,1.9176,1.9195,1.9199,1.9179,1.9179,1.9179,1.9179,1.9179,1.9179,1.9354,1.9336,1.9331,1.9308,1.93,1.9283,1.9276,1.9265,1.9256,1.9234,1.9221,1.9214,1.9202,1.9185,1.9169,1.9166,1.916,1.9157,1.9154,1.9172,1.9174,1.9176,1.918,1.9156,1.9156,1.9136,1.9136,1.9136]}]]